Torna al catalogo

TITAN 3C TRANSTAGE DEB

LostHEO
NORAD 27865·DEBRIS·🇺🇸 United States

Lanciato Dec 21, 1965 da Cape Canaveral Space Force Station

Loading…

Prossimi Passaggi (prossime 24 ore)

TLE

ObsoletoSource: Space-Track

Epoca: Aug 14, 2025, 04:42 UTC

1 27865U 65108BL  25226.19614346  .00000060  00000-0  73889-2 0  9992
2 27865  26.8929 285.2281 6729487 233.3292  88.9066  2.60314498221370

Traccia TITAN 3C TRANSTAGE DEB in tempo reale con AllMySat

Download on the App Store